This demonstration page uses our WeatherBlox Daily Observations layout. Learn more.

Left ArrowRight Arrow

Hourly Observations for January 6, 2018

Temp ( °F °C ) Dew Point ( °F °C ) Humidity (%) Winds ( mph kmh ) Pressure ( in mb ) Visibility ( mi km ) Precip ( " mm )
12:15 am 00:15 Clear 14 -10 0 -18 52 52 NNW 6 9 30.33 1027 10 16.0934 0 0
12:35 am 00:35 Clear 12 -11 0 -18 57 57 NW 7 11 30.33 1027 10 16.0934 0 0
12:55 am 00:55 Clear 12 -11 1 -17 62 62 NW 8 13 30.33 1027 10 16.0934 0 0
1:15 am 01:15 Clear 14 -10 1 -17 57 57 NW 12 19 30.33 1027 10 16.0934 0 0
1:35 am 01:35 Clear 12 -11 1 -17 62 62 NW 12 19 30.36 1028 10 16.0934 0 0
1:55 am 01:55 Clear 12 -11 0 -18 57 57 NW 10 17 30.36 1028 10 16.0934 0 0
2:15 am 02:15 Clear 12 -11 0 -18 57 57 WNW 12 19 30.36 1028 10 16.0934 0 0
2:35 am 02:35 Clear 12 -11 -2 -19 52 52 NW 15 24 30.39 1029 10 16.0934 0 0
2:55 am 02:55 Clear 12 -11 -4 -20 48 48 NW 14 22 30.39 1029 10 16.0934 0 0
3:15 am 03:15 Clear 12 -11 -4 -20 48 48 NW 8 13 30.39 1029 10 16.0934 0 0
3:35 am 03:35 Clear 10 -12 -4 -20 52 52 NW 10 17 30.39 1029 10 16.0934 0 0
3:55 am 03:55 Clear 10 -12 -4 -20 52 52 WNW 15 24 30.39 1029 10 16.0934 0 0
4:15 am 04:15 Clear 10 -12 -4 -20 52 52 NW 16 26 30.39 1029 10 16.0934 0 0
4:35 am 04:35 Clear 10 -12 -4 -20 52 52 WNW 12 19 30.39 1029 10 16.0934 0 0
4:55 am 04:55 Clear 10 -12 -4 -20 52 52 NW 14 22 30.42 1030 10 16.0934 0 0
5:15 am 05:15 Clear 10 -12 -4 -20 52 52 NW 13 20 30.42 1030 10 16.0934 0 0
5:35 am 05:35 Clear 10 -12 -4 -20 52 52 NW 16 26 30.42 1030 10 16.0934 0 0
5:55 am 05:55 Clear 10 -12 -2 -19 56 56 WNW 15 24 30.42 1030 10 16.0934 0 0
6:15 am 06:15 Clear 10 -12 -2 -19 56 56 WNW 14 22 30.42 1030 10 16.0934 0 0
6:35 am 06:35 Clear 10 -12 -2 -19 56 56 NW 17 28 30.42 1030 10 16.0934 0 0
6:55 am 06:55 Clear 10 -12 -2 -19 56 56 NW 13 20 30.45 1031 10 16.0934 0 0
7:15 am 07:15 Clear 10 -12 -2 -19 56 56 NW 10 17 30.45 1031 10 16.0934 0 0
7:35 am 07:35 Sunny 10 -12 -2 -19 56 56 NNW 8 13 30.45 1031 10 16.0934 0 0
7:55 am 07:55 Sunny 10 -12 -2 -19 56 56 NW 10 17 30.45 1031 10 16.0934 0 0
8:15 am 08:15 Sunny 10 -12 -2 -19 56 56 NW 10 17 30.45 1031 10 16.0934 0 0
8:35 am 08:35 Sunny 12 -11 -2 -19 52 52 NNW 8 13 30.48 1032 10 16.0934 0 0
8:55 am 08:55 Sunny 12 -11 -2 -19 52 52 NW 13 20 30.48 1032 10 16.0934 0 0
9:15 am 09:15 Sunny 14 -10 -2 -19 48 48 WNW 20 31 30.48 1032 10 16.0934 0 0
9:35 am 09:35 Partly Cloudy 14 -10 -2 -19 48 48 NW 18 30 30.5 1033 10 16.0934 0 0
9:55 am 09:55 Partly Cloudy 14 -10 -2 -19 48 48 WNW 14 22 30.5 1033 10 16.0934 0 0
10:15 am 10:15 Mostly Cloudy 16 -9 -2 -19 45 45 WNW 18 30 30.5 1033 10 16.0934 0 0
10:35 am 10:35 Partly Cloudy 18 -8 -2 -19 41 41 WNW 21 33 30.5 1033 10 16.0934 0 0
10:55 am 10:55 Partly Cloudy 18 -8 -2 -19 41 41 WNW 18 30 30.5 1033 10 16.0934 0 0
11:15 am 11:15 Sunny 18 -8 -2 -19 41 41 WNW 21 33 30.5 1033 10 16.0934 0 0
11:35 am 11:35 Partly Cloudy 19 -7 -2 -19 38 38 NW 16 26 30.5 1033 10 16.0934 0 0
11:55 am 11:55 Partly Cloudy 19 -7 -4 -20 35 35 NW 20 31 30.5 1033 10 16.0934 0 0
12:15 pm 12:15 Partly Cloudy 19 -7 -4 -20 35 35 NW 18 30 30.48 1032 10 16.0934 0 0
12:35 pm 12:35 Sunny 19 -7 -4 -20 35 35 WNW 24 39 30.48 1032 10 16.0934 0 0
12:55 pm 12:55 Sunny 19 -7 -2 -19 38 38 NW 21 33 30.48 1032 10 16.0934 0 0
1:15 pm 13:15 Sunny 19 -7 -2 -19 38 38 NW 22 35 30.48 1032 10 16.0934 0 0
1:35 pm 13:35 Sunny 21 -6 -2 -19 35 35 WNW 25 41 30.45 1031 10 16.0934 0 0
1:55 pm 13:55 Partly Cloudy 19 -7 -2 -19 38 38 WNW 24 39 30.48 1032 10 16.0934 0 0
2:15 pm 14:15 Partly Cloudy 21 -6 -2 -19 35 35 WNW 20 31 30.48 1032 10 16.0934 0 0
2:35 pm 14:35 Sunny 21 -6 -4 -20 32 32 NW 16 26 30.48 1032 10 16.0934 0 0
2:55 pm 14:55 Sunny 21 -6 -4 -20 32 32 NW 22 35 30.48 1032 10 16.0934 0 0
3:15 pm 15:15 Sunny 21 -6 -4 -20 32 32 NNW 25 41 30.48 1032 10 16.0934 0 0
3:35 pm 15:35 Sunny 21 -6 -4 -20 32 32 NW 21 33 30.48 1032 10 16.0934 0 0
3:55 pm 15:55 Sunny 19 -7 -4 -20 35 35 NW 16 26 30.5 1033 10 16.0934 0 0
4:15 pm 16:15 Sunny 19 -7 -4 -20 35 35 NW 24 39 30.5 1033 10 16.0934 0 0
4:35 pm 16:35 Sunny 18 -8 -4 -20 38 38 NW 23 37 30.5 1033 10 16.0934 0 0
4:55 pm 16:55 Sunny 18 -8 -4 -20 38 38 NW 22 35 30.5 1033 10 16.0934 0 0
5:15 pm 17:15 Clear 18 -8 -4 -20 38 38 NNW 15 24 30.53 1034 10 16.0934 0 0
5:35 pm 17:35 Clear 18 -8 -4 -20 38 38 NNW 13 20 30.53 1034 10 16.0934 0 0
5:55 pm 17:55 Clear 18 -8 -4 -20 38 38 NNW 15 24 30.53 1034 10 16.0934 0 0
6:15 pm 18:15 Clear 16 -9 -4 -20 41 41 NNW 10 17 30.56 1035 10 16.0934 0 0
6:35 pm 18:35 Clear 16 -9 -4 -20 41 41 NNW 10 17 30.56 1035 10 16.0934 0 0
6:55 pm 18:55 Clear 16 -9 -4 -20 41 41 NNW 10 17 30.56 1035 10 16.0934 0 0
7:15 pm 19:15 Clear 14 -10 -4 -20 44 44 N 6 9 30.56 1035 10 16.0934 0 0
7:35 pm 19:35 Clear 14 -10 -2 -19 48 48 NNW 7 11 30.56 1035 10 16.0934 0 0
7:55 pm 19:55 Clear 14 -10 0 -18 52 52 NW 12 19 30.56 1035 10 16.0934 0 0
8:15 pm 20:15 Clear 12 -11 0 -18 57 57 NW 9 15 30.56 1035 10 16.0934 0 0
8:35 pm 20:35 Clear 12 -11 0 -18 57 57 NW 7 11 30.56 1035 10 16.0934 0 0
8:55 pm 20:55 Clear 12 -11 0 -18 57 57 NW 13 20 30.56 1035 10 16.0934 0 0
9:15 pm 21:15 Clear 12 -11 0 -18 57 57 NW 10 17 30.56 1035 10 16.0934 0 0
9:35 pm 21:35 Clear 14 -10 0 -18 52 52 NNW 7 11 30.59 1036 10 16.0934 0 0
9:55 pm 21:55 Clear 14 -10 0 -18 52 52 NNW 7 11 30.59 1036 10 16.0934 0 0
10:15 pm 22:15 Clear 14 -10 1 -17 57 57 NNW 15 24 30.59 1036 10 16.0934 0 0
10:35 pm 22:35 Clear 14 -10 0 -18 52 52 NNW 13 20 30.59 1036 10 16.0934 0 0
10:55 pm 22:55 Clear 14 -10 0 -18 52 52 NW 13 20 30.59 1036 10 16.0934 0 0
11:15 pm 23:15 Clear 14 -10 0 -18 52 52 NNW 9 15 30.59 1036 10 16.0934 0 0
11:35 pm 23:35 Clear 12 -11 0 -18 57 57 NW 10 17 30.59 1036 10 16.0934 0 0
11:55 pm 23:55 Clear 12 -11 0 -18 57 57 N 7 11 30.62 1037 10 16.0934 0 0

Powered by AerisWeather